Location: �mondeville
(49.4591°N, 1.3431°W)
Time: 13:01:09
(UTC+00:00)

Cosmos 2278 Rocket - Pass Details

Date: 22 October 2019
Orbit: 840 x 846 km, 71.0° (Epoch: 21 November)

Event Time Altitude Azimuth Distance (km) Brightness Sun altitude
Exits shadow 03:40:07 16° 162° (SSE) 2,074 4.2 -29.1°
Drops below altitude 10° 03:41:09 10° 161° (SSE) 2,461 4.6 -29.0°
Sets 03:43:35 0° 159° (SSE) 3,391 5.4 -28.6°
